[[{"header":{"parameterUnit":"m.s-1","parameterCategory":1,"la1":30.2991,"la2":30.254,"lo1":-89.0895,"lo2":-89.0444,"dy":0.0017,"dx":0.0017,"nx":28,"ny":28,"refTime":"2025-01-29T09:00:00:Z","depth":0,"parameterNumber":2,"parameterNumberName":"U-component_of_WINDS"},"data":[0,0,0,0,0,0,0,0,0,0,0,0,0,0,0,0,0,0,0,0,0,0,0,0,0,0,0,0,0,0,0,0,0,0,0,0,0,0,0,0,0,0,0,0,0,0,0,0,0,0,0,0,0,0,0,0,0,0,-0.278,-0.278,0,-0.2806,-0.2807,-0.2807,-0.2802,-0.2802,-0.2801,-0.2801,-0.2828,-0.283,-0.2831,0,0,0,0,0,0,0,0,0,0,0,0,0,-0.2725,-0.2726,-0.278,-0.278,-0.278,-0.2806,-0.2807,-0.2807,-0.2802,-0.2802,-0.2801,-0.2801,-0.2828,-0.2829,-0.2831,0,0,0,0,0,0,0,0,0,0,0,0,0,-0.275,-0.2726,-0.278,-0.2781,-0.2781,-0.2806,-0.2807,-0.2807,-0.2802,-0.2802,-0.2801,-0.28,-0.2828,-0.2829,-0.2831,-0.2856,0,0,-0.2836,-0.2837,0,0,0,0,0,0,0,0,-0.2749,-0.2752,-0.2781,-0.2781,-0.2782,-0.28,-0.2797,-0.2823,-0.2802,-0.2794,-0.2801,-0.28,-0.282,-0.2822,-0.2829,-0.2857,-0.2858,-0.2837,-0.2838,-0.2838,-0.2839,0,0,0,0,0,0,0,-0.2747,-0.2751,-0.279,-0.2781,-0.2782,-0.278,-0.2783,-0.2802,-0.2811,-0.2795,-0.2795,-0.2798,-0.282,-0.2827,-0.2829,-0.2859,-0.2837,-0.2838,-0.2839,-0.284,-0.2909,-0.291,0,0,0,0,0,0,-0.2745,-0.2749,-0.2789,-0.2791,-0.2763,-0.2782,-0.2785,-0.2795,-0.281,-0.2812,-0.2799,-0.2798,-0.2824,-0.2827,-0.283,-0.286,-0.2838,-0.284,-0.2841,-0.2908,-0.2909,-0.291,0,0,0,0,0,0,-0.2743,-0.2748,-0.2788,-0.277,-0.2775,-0.2784,-0.2795,-0.2796,-0.2803,-0.2813,-0.2815,-0.2804,-0.2824,-0.2828,-0.285,-0.2861,-0.2841,-0.2842,-0.2908,-0.2909,-0.291,-0.2921,0,0,0,0,0,0,-0.2742,-0.2748,-0.2757,-0.277,-0.2776,-0.2807,-0.2795,-0.2797,-0.2806,-0.2805,-0.2819,-0.282,-0.2823,-0.2847,-0.2851,-0.2863,-0.2844,-0.2907,-0.2908,-0.2909,-0.292,-0.2923,-0.2925,0,0,0,0,0,-0.274,-0.276,-0.2758,-0.2763,-0.2788,-0.2808,-0.2811,-0.2814,-0.2807,-0.2817,-0.2823,-0.282,-0.2859,-0.2849,-0.2854,-0.2867,-0.2906,-0.2908,-0.2909,-0.2919,-0.2922,-0.2925,0,0,0,0,0,0,-0.2748,-0.2762,-0.276,-0.2784,-0.2795,-0.2807,-0.282,-0.2818,-0.2831,-0.283,-0.2833,-0.2836,-0.2858,-0.2865,-0.2853,-0.2892,-0.2881,-0.2884,-0.2887,-0.289,-0.2893,-0.2891,-0.2845,0,0,0,0,0,-0.2753,-0.2768,-0.2778,-0.2799,-0.2805,-0.2811,-0.282,-0.2821,-0.2832,-0.2837,-0.2845,-0.2856,-0.2871,-0.2881,-0.2895,-0.2921,-0.2924,-0.2932,-0.2934,-0.2936,-0.2939,-0.2953,-0.2957,-0.2916,-0.2916,-0.2916,0,0,-0.2763,-0.2772,-0.2781,-0.2801,-0.281,-0.2825,-0.2815,-0.2832,-0.2843,-0.284,-0.2861,-0.2867,-0.288,-0.2904,-0.2914,-0.291,-0.2951,-0.2939,-0.294,-0.2942,-0.2955,-0.2959,-0.2962,-0.2917,-0.2917,-0.2917,0,0,-0.2789,-0.2797,-0.2815,-0.2824,-0.2837,-0.2841,-0.2845,-0.2857,-0.2861,-0.2883,-0.288,-0.2894,-0.2919,-0.2928,-0.2936,-0.2965,-0.2963,-0.2969,-0.2983,-0.2997,-0.3,-0.3003,-0.3014,-0.3017,-0.2972,-0.2972,-0.2972,0,-0.28,-0.2823,-0.2825,-0.2842,-0.2851,-0.2848,-0.2866,-0.2874,-0.2891,-0.2897,-0.2891,-0.2923,-0.2931,-0.2957,-0.2964,-0.2971,-0.2976,-0.2968,-0.3,-0.3002,-0.3005,-0.3015,-0.3019,-0.2973,-0.2973,-0.2973,-0.2972,0,-0.2836,-0.2852,-0.2865,-0.2881,-0.2891,-0.2909,-0.2913,-0.2923,-0.2923,-0.2928,-0.295,-0.2959,-0.2975,-0.2981,-0.2982,-0.3007,-0.3004,-0.2999,-0.2989,-0.301,-0.3019,-0.3023,-0.2974,-0.2974,-0.2973,-0.2973,0,0,-0.2869,-0.2885,-0.289,-0.2898,-0.2911,-0.2924,-0.2941,-0.2956,-0.2965,-0.2976,-0.2991,-0.3012,-0.3007,-0.3016,-0.3017,-0.3029,-0.3052,-0.3023,-0.3023,-0.3028,-0.3081,-0.3085,-0.3089,-0.305,-0.3051,-0.3051,-0.308,0,-0.2897,-0.2927,-0.2929,-0.2957,-0.2972,-0.2969,-0.2984,-0.2994,-0.2998,-0.3011,-0.3016,-0.3031,-0.3024,-0.3029,-0.304,-0.3047,-0.3062,-0.3044,-0.3064,-0.3065,-0.3062,-0.3094,-0.3099,-0.3126,-0.3083,-0.3084,-0.3084,0,-0.2934,-0.2946,-0.2975,-0.2986,-0.2993,-0.3006,-0.302,-0.3033,-0.3044,-0.3046,-0.3056,-0.3055,-0.3073,-0.3061,-0.3086,-0.3074,-0.3081,-0.3085,-0.3087,-0.3089,-0.3076,-0.3099,-0.3134,-0.3139,-0.309,-0.309,-0.3089,0,-0.2956,-0.2979,-0.3,-0.3006,-0.302,-0.3029,-0.3035,-0.3045,-0.3054,-0.3067,-0.3073,-0.3087,-0.3095,-0.3106,-0.3109,-0.31,-0.3133,-0.3122,-0.3136,-0.3136,-0.3144,-0.3144,-0.3182,-0.3148,-0.3148,-0.3148,-0.3148,0,-0.2987,-0.3005,-0.301,-0.3023,-0.3043,-0.3045,-0.3064,-0.307,-0.3079,-0.3092,-0.309,-0.3103,-0.3106,-0.3119,-0.3122,-0.3142,-0.3145,-0.3148,-0.3149,-0.3149,-0.3148,-0.3155,-0.3153,-0.3149,-0.3148,-0.3148,-0.3148,0,-0.3016,-0.3019,-0.3042,-0.3052,-0.3055,-0.307,-0.3079,-0.3091,-0.3095,-0.3112,-0.3116,-0.3122,-0.3138,-0.3142,-0.3161,-0.3162,-0.3186,-0.3184,-0.3182,-0.3183,-0.3197,-0.3196,-0.3241,-0.3248,-0.3208,-0.3209,-0.3209,0,-0.3036,-0.305,-0.3062,-0.307,-0.3077,-0.3091,-0.31,-0.3102,-0.3112,-0.3125,-0.3136,-0.3151,-0.3163,-0.3188,-0.3195,-0.3209,-0.3208,-0.3223,-0.321,-0.321,-0.3209,-0.3208,-0.321,-0.3226,-0.3226,-0.3226,-0.3227,0,-0.3072,-0.3073,-0.3086,-0.31,-0.311,-0.3121,-0.3132,-0.3139,-0.3142,-0.3153,-0.3169,-0.3179,-0.3197,-0.3213,-0.3227,-0.3233,-0.3231,-0.323,-0.3235,-0.3235,-0.3234,-0.3235,-0.319,-0.323,-0.3229,-0.3229,-0.3229,-0.3229,-0.3097,-0.3109,-0.3119,-0.3134,-0.3142,-0.3152,-0.3164,-0.3169,-0.3182,-0.3197,-0.3197,-0.3215,-0.3225,-0.3243,-0.325,-0.3264,-0.3259,-0.3265,-0.3267,-0.3268,-0.327,-0.3231,-0.3266,-0.3266,-0.3266,-0.3266,-0.3266,0,-0.3133,-0.3139,-0.3153,-0.3167,-0.3179,-0.3175,-0.3186,-0.3196,-0.3211,-0.3221,-0.3233,-0.3251,-0.3265,-0.3272,-0.3287,-0.3296,-0.3295,-0.33,-0.33,-0.3301,-0.3273,-0.3268,-0.33,-0.33,-0.33,-0.33,-0.33,-0.33,-0.3153,-0.3174,-0.3176,-0.32,-0.3206,-0.3223,-0.323,-0.3239,-0.3246,-0.3266,-0.3278,-0.3283,-0.3291,-0.3306,-0.3319,-0.3321,-0.3326,-0.3332,-0.3333,-0.3307,-0.3303,-0.33,-0.3295,-0.3333,-0.3333,-0.336,-0.336,-0.336]},{"header":{"parameterUnit":"m.s-1","parameterCategory":1,"la1":30.2991,"la2":30.254,"lo1":-89.0895,"lo2":-89.0444,"dy":0.0017,"dx":0.0017,"nx":28,"ny":28,"refTime":"2025-01-29T09:00:00:Z","depth":0,"parameterNumber":3,"parameterNumberName":"V-component_of_WINDS"},"data":[0,0,0,0,0,0,0,0,0,0,0,0,0,0,0,0,0,0,0,0,0,0,0,0,0,0,0,0,0,0,0,0,0,0,0,0,0,0,0,0,0,0,0,0,0,0,0,0,0,0,0,0,0,0,0,0,0,0,-0.3876,-0.3877,0,-0.3954,-0.3955,-0.3956,-0.3961,-0.396,-0.3959,-0.3958,-0.4038,-0.4041,-0.4044,0,0,0,0,0,0,0,0,0,0,0,0,0,-0.3732,-0.3735,-0.3876,-0.3877,-0.3878,-0.3954,-0.3955,-0.3956,-0.3961,-0.396,-0.3959,-0.3958,-0.4037,-0.4041,-0.4045,0,0,0,0,0,0,0,0,0,0,0,0,0,-0.3801,-0.3736,-0.3876,-0.389,-0.3892,-0.3954,-0.3955,-0.3957,-0.3961,-0.396,-0.3958,-0.3957,-0.4036,-0.4041,-0.4045,-0.4099,0,0,-0.4059,-0.4061,0,0,0,0,0,0,0,0,-0.3797,-0.3806,-0.3887,-0.3889,-0.3891,-0.3946,-0.3934,-0.4004,-0.3961,-0.3935,-0.3958,-0.3957,-0.4009,-0.4016,-0.4033,-0.4103,-0.4106,-0.4059,-0.4062,-0.4064,-0.4065,0,0,0,0,0,0,0,-0.3792,-0.3803,-0.3907,-0.3888,-0.3891,-0.3892,-0.39,-0.3947,-0.3978,-0.3937,-0.3937,-0.3947,-0.401,-0.4029,-0.4035,-0.4108,-0.4059,-0.4063,-0.4066,-0.4067,-0.4226,-0.4228,0,0,0,0,0,0,-0.3785,-0.3799,-0.3905,-0.3909,-0.384,-0.3896,-0.3905,-0.393,-0.3978,-0.3984,-0.3948,-0.3947,-0.4022,-0.403,-0.4038,-0.4105,-0.4064,-0.4068,-0.407,-0.4225,-0.4227,-0.4228,0,0,0,0,0,0,-0.3782,-0.3794,-0.3902,-0.3854,-0.3868,-0.39,-0.3928,-0.3932,-0.3951,-0.3986,-0.3992,-0.3961,-0.4021,-0.4032,-0.4084,-0.4108,-0.407,-0.4074,-0.4223,-0.4225,-0.4228,-0.424,0,0,0,0,0,0,-0.3778,-0.3793,-0.3814,-0.3855,-0.3871,-0.3946,-0.3929,-0.3935,-0.3959,-0.3958,-0.4,-0.4006,-0.4021,-0.4077,-0.4088,-0.4114,-0.4077,-0.4221,-0.4224,-0.4227,-0.4238,-0.4242,-0.4247,0,0,0,0,0,-0.3773,-0.3814,-0.3815,-0.3828,-0.3897,-0.3948,-0.3957,-0.3973,-0.3961,-0.3982,-0.4004,-0.4005,-0.4103,-0.4083,-0.4095,-0.4122,-0.422,-0.4223,-0.4227,-0.4236,-0.4242,-0.4247,0,0,0,0,0,0,-0.3776,-0.382,-0.3821,-0.3877,-0.3909,-0.3948,-0.3976,-0.3979,-0.4014,-0.4012,-0.4031,-0.404,-0.4092,-0.4112,-0.4088,-0.4177,-0.416,-0.4166,-0.4163,-0.4169,-0.4173,-0.4168,-0.4081,0,0,0,0,0,-0.3783,-0.382,-0.3856,-0.3903,-0.3918,-0.3944,-0.3967,-0.3976,-0.401,-0.4023,-0.4049,-0.4082,-0.412,-0.4145,-0.4182,-0.424,-0.425,-0.4265,-0.4269,-0.4273,-0.4278,-0.4311,-0.4318,-0.424,-0.424,-0.424,0,0,-0.3798,-0.3827,-0.3849,-0.3904,-0.3929,-0.3968,-0.3955,-0.3996,-0.4025,-0.4029,-0.4081,-0.4101,-0.4139,-0.4194,-0.422,-0.4212,-0.4302,-0.4277,-0.428,-0.4283,-0.4315,-0.4323,-0.4329,-0.4242,-0.4242,-0.4242,0,0,-0.3846,-0.3871,-0.3913,-0.3938,-0.3977,-0.3994,-0.4004,-0.4043,-0.4057,-0.4108,-0.4113,-0.4147,-0.4213,-0.424,-0.4262,-0.4319,-0.4321,-0.4331,-0.4355,-0.4387,-0.4393,-0.4398,-0.442,-0.4428,-0.4336,-0.4336,-0.4336,0,-0.3861,-0.3918,-0.3934,-0.3975,-0.3999,-0.4004,-0.4047,-0.4071,-0.412,-0.4137,-0.4127,-0.421,-0.4235,-0.4298,-0.4312,-0.4329,-0.4342,-0.4327,-0.4391,-0.4396,-0.4402,-0.4423,-0.4431,-0.4337,-0.4337,-0.4337,-0.4337,0,-0.3935,-0.3975,-0.4004,-0.4051,-0.4078,-0.4119,-0.4142,-0.4167,-0.4174,-0.4192,-0.4245,-0.4276,-0.432,-0.4335,-0.4342,-0.4399,-0.4393,-0.4387,-0.437,-0.441,-0.443,-0.4438,-0.4338,-0.4338,-0.4338,-0.4338,0,0,-0.3988,-0.4043,-0.4053,-0.4075,-0.4118,-0.4149,-0.4191,-0.4233,-0.4256,-0.4289,-0.4325,-0.438,-0.4375,-0.44,-0.441,-0.4438,-0.4483,-0.4429,-0.443,-0.4439,-0.4548,-0.4553,-0.4562,-0.4484,-0.4485,-0.4487,-0.4545,0,-0.4042,-0.4116,-0.4131,-0.4196,-0.4234,-0.4239,-0.4275,-0.4306,-0.4324,-0.4358,-0.4378,-0.4417,-0.4407,-0.4422,-0.4449,-0.4472,-0.4505,-0.4467,-0.4519,-0.452,-0.4511,-0.4573,-0.4578,-0.4632,-0.4553,-0.4554,-0.4555,0,-0.4115,-0.415,-0.4218,-0.4256,-0.4273,-0.4305,-0.4346,-0.4379,-0.4413,-0.4424,-0.4452,-0.4459,-0.4503,-0.4484,-0.4545,-0.4519,-0.454,-0.4554,-0.4557,-0.4564,-0.4541,-0.4582,-0.465,-0.4659,-0.4568,-0.4567,-0.4566,0,-0.4148,-0.4212,-0.4262,-0.428,-0.4325,-0.4348,-0.4368,-0.4401,-0.4426,-0.4462,-0.4478,-0.4518,-0.454,-0.4571,-0.4589,-0.4573,-0.4649,-0.4631,-0.4661,-0.466,-0.4678,-0.4677,-0.4751,-0.4689,-0.4689,-0.4689,-0.4689,0,-0.4208,-0.425,-0.4278,-0.4308,-0.4356,-0.4372,-0.4419,-0.4439,-0.4468,-0.4503,-0.4509,-0.4542,-0.4563,-0.4599,-0.4613,-0.4662,-0.4672,-0.4682,-0.4686,-0.4683,-0.4682,-0.4698,-0.4696,-0.4691,-0.4691,-0.469,-0.469,0,-0.4254,-0.4274,-0.4329,-0.4367,-0.4377,-0.4411,-0.4444,-0.4474,-0.4491,-0.4535,-0.4547,-0.4574,-0.4617,-0.4637,-0.469,-0.4699,-0.4756,-0.4756,-0.4744,-0.4746,-0.4775,-0.4773,-0.4864,-0.4878,-0.4805,-0.4806,-0.4806,0,-0.4291,-0.4324,-0.4365,-0.4389,-0.4409,-0.4447,-0.4473,-0.449,-0.4516,-0.4558,-0.4583,-0.4626,-0.4661,-0.4729,-0.4754,-0.4794,-0.4796,-0.4826,-0.4803,-0.4799,-0.4799,-0.4797,-0.4801,-0.483,-0.4831,-0.4831,-0.4832,0,-0.4356,-0.4364,-0.44,-0.444,-0.447,-0.4502,-0.4534,-0.4553,-0.4575,-0.4605,-0.4648,-0.4675,-0.4729,-0.4771,-0.4813,-0.4834,-0.4838,-0.4839,-0.4848,-0.4846,-0.4838,-0.4844,-0.4757,-0.4837,-0.4836,-0.4836,-0.4836,-0.4836,-0.44,-0.4429,-0.4463,-0.4503,-0.4529,-0.4558,-0.4589,-0.461,-0.4646,-0.4691,-0.4699,-0.4745,-0.4779,-0.4836,-0.4858,-0.4895,-0.4888,-0.4902,-0.4905,-0.4909,-0.4911,-0.4831,-0.4902,-0.4902,-0.4902,-0.4902,-0.4902,0,-0.4466,-0.4487,-0.4524,-0.4568,-0.46,-0.4599,-0.4634,-0.4661,-0.4702,-0.4733,-0.4767,-0.4817,-0.4859,-0.4887,-0.4929,-0.4953,-0.4955,-0.4963,-0.4963,-0.4968,-0.4914,-0.4902,-0.4961,-0.4961,-0.4961,-0.4961,-0.4961,-0.496,-0.4504,-0.4554,-0.4566,-0.4629,-0.4651,-0.4696,-0.4717,-0.4744,-0.4769,-0.4825,-0.4859,-0.4877,-0.4907,-0.4951,-0.4989,-0.4996,-0.5012,-0.502,-0.5028,-0.4977,-0.4971,-0.4965,-0.4955,-0.5023,-0.5023,-0.5079,-0.5079,-0.508]}]]